EWG345 EDDM-EDVK

Flight info

Callsign EWG345
Flight time 0h 45m
Altitude 26000
Route GIVMI1N GIVMI Y101 IBAGA/N0390F240 L610 BIBEG L604 OBISI P605 ELNAT
Aircraft A20N/M-SDE2E3FGHIRWXY/LB1

Departure

Time 2026-05-05 16:27
Airport Munich Airport (EDDM)

Arrival

Time 2026-05-05 17:13
Airport Kassel Airport (EDVK)
Time Latitude Longitude Altitude Speed Heading
2026-05-05 15:59 48.35731 11.79699 1470 ft 0 kts 83°
2026-05-05 16:06 48.35726 11.79642 1464 ft 7 kts 79°
2026-05-05 16:06 48.35699 11.79570 1465 ft 8 kts 33°
2026-05-05 16:06 48.35656 11.79549 1468 ft 0 kts
2026-05-05 16:09 48.35657 11.79549 1471 ft 0 kts
2026-05-05 16:10 48.35665 11.79550 1464 ft 2 kts
2026-05-05 16:10 48.35675 11.79550 1471 ft 0 kts
2026-05-05 16:20 48.35696 11.79550 1461 ft 17 kts
2026-05-05 16:21 48.35791 11.79530 1462 ft 0 kts 351°
2026-05-05 16:22 48.35982 11.79499 1468 ft 0 kts 356°
2026-05-05 16:23 48.36017 11.79493 1459 ft 22 kts 354°
2026-05-05 16:23 48.36191 11.79478 1462 ft 23 kts 19°
2026-05-05 16:23 48.36237 11.79761 1459 ft 24 kts 86°
2026-05-05 16:24 48.36266 11.80160 1457 ft 45 kts 81°
2026-05-05 16:24 48.36303 11.80652 1463 ft 50 kts 85°
2026-05-05 16:24 48.36370 11.81541 1460 ft 46 kts 82°
2026-05-05 16:25 48.36396 11.81923 1459 ft 30 kts 89°
2026-05-05 16:25 48.36501 11.81999 1456 ft 8 kts 342°
2026-05-05 16:25 48.36562 11.81982 1458 ft 0 kts 352°
2026-05-05 16:26 48.36686 11.81902 1459 ft 6 kts 278°
2026-05-05 16:27 48.36636 11.81512 1458 ft 81 kts 262°
2026-05-05 16:27 48.36552 11.80286 1474 ft 149 kts 263°
2026-05-05 16:27 48.36439 11.78662 2098 ft 159 kts 263°
2026-05-05 16:27 48.36337 11.76991 2988 ft 162 kts 268°
2026-05-05 16:28 48.36257 11.75205 3512 ft 180 kts 268°
2026-05-05 16:28 48.36073 11.73229 4036 ft 202 kts 261°
2026-05-05 16:28 48.35855 11.71043 4688 ft 215 kts 263°
2026-05-05 16:28 48.35740 11.68801 5619 ft 216 kts 275°
2026-05-05 16:29 48.36182 11.66633 6353 ft 224 kts 299°
2026-05-05 16:29 48.37024 11.64615 6908 ft 229 kts 301°
2026-05-05 16:29 48.37874 11.62622 7906 ft 225 kts 300°
2026-05-05 16:29 48.38716 11.60615 8785 ft 228 kts 299°
2026-05-05 16:30 48.39568 11.58549 9478 ft 242 kts 298°
2026-05-05 16:30 48.40495 11.56261 9750 ft 273 kts 298°
2026-05-05 16:30 48.41545 11.53656 9805 ft 309 kts 298°
2026-05-05 16:30 48.42728 11.50733 9805 ft 341 kts 299°
2026-05-05 16:31 48.43969 11.47684 9807 ft 347 kts 299°
2026-05-05 16:31 48.45494 11.44801 9809 ft 351 kts 316°
2026-05-05 16:31 48.47549 11.42888 9810 ft 357 kts 337°
2026-05-05 16:31 48.49972 11.42007 9810 ft 360 kts 348°
2026-05-05 16:32 48.52470 11.41331 9797 ft 360 kts 348°
2026-05-05 16:32 48.54914 11.40675 10016 ft 361 kts 348°
2026-05-05 16:32 48.57424 11.39995 10469 ft 363 kts 348°
2026-05-05 16:32 48.59889 11.39323 10960 ft 366 kts 348°
2026-05-05 16:33 48.62408 11.38632 11453 ft 369 kts 348°
2026-05-05 16:33 48.64948 11.37933 11960 ft 372 kts 348°
2026-05-05 16:33 48.67514 11.37200 12476 ft 381 kts 345°
2026-05-05 16:33 48.70071 11.35972 13002 ft 391 kts 335°
2026-05-05 16:34 48.72526 11.34069 13568 ft 398 kts 326°
2026-05-05 16:34 48.74842 11.31709 14073 ft 408 kts 323°
2026-05-05 16:34 48.77206 11.29304 14766 ft 411 kts 324°
2026-05-05 16:34 48.79585 11.26900 15738 ft 408 kts 324°
2026-05-05 16:35 48.81935 11.24527 16744 ft 404 kts 324°
2026-05-05 16:35 48.84366 11.22412 17793 ft 402 kts 331°
2026-05-05 16:35 48.86927 11.20730 18771 ft 399 kts 338°
2026-05-05 16:35 48.89542 11.19405 19716 ft 393 kts 340°
2026-05-05 16:36 48.92123 11.18101 20683 ft 386 kts 339°
2026-05-05 16:36 48.94651 11.16809 21709 ft 378 kts 339°
2026-05-05 16:36 48.97112 11.15551 22760 ft 368 kts 339°
2026-05-05 16:36 48.99499 11.14332 23762 ft 357 kts 339°
2026-05-05 16:37 49.01811 11.13155 24698 ft 343 kts 339°
2026-05-05 16:37 49.04025 11.12027 25628 ft 327 kts 339°
2026-05-05 16:37 49.06122 11.10959 26555 ft 311 kts 338°
2026-05-05 16:37 49.08192 11.09899 26848 ft 319 kts 338°
2026-05-05 16:38 49.10322 11.08801 27045 ft 326 kts 338°
2026-05-05 16:38 49.12479 11.07695 27448 ft 327 kts 338°
2026-05-05 16:38 49.14620 11.06602 27803 ft 330 kts 338°
2026-05-05 16:38 49.16371 11.05708 28076 ft 332 kts 338°
2026-05-05 16:39 49.18573 11.04584 28419 ft 334 kts 338°
2026-05-05 16:39 49.20784 11.03452 28777 ft 336 kts 338°
2026-05-05 16:39 49.23008 11.02308 29108 ft 338 kts 338°
2026-05-05 16:39 49.25247 11.01154 29441 ft 341 kts 338°
2026-05-05 16:40 49.27499 10.99993 29765 ft 342 kts 338°
2026-05-05 16:40 49.29736 10.98840 30189 ft 339 kts 338°
2026-05-05 16:40 49.31981 10.97681 30455 ft 341 kts 338°
2026-05-05 16:40 49.34236 10.96514 30706 ft 343 kts 338°
2026-05-05 16:41 49.36503 10.95326 30968 ft 344 kts 335°
2026-05-05 16:41 49.38696 10.93860 31218 ft 344 kts 328°
2026-05-05 16:41 49.40761 10.92023 31443 ft 343 kts 322°
2026-05-05 16:41 49.42719 10.89919 31680 ft 345 kts 321°
2026-05-05 16:42 49.44695 10.87805 31930 ft 346 kts 321°
2026-05-05 16:42 49.46687 10.85686 32161 ft 348 kts 321°
2026-05-05 16:42 49.48685 10.83557 32382 ft 350 kts 321°
2026-05-05 16:42 49.50689 10.81417 32614 ft 352 kts 321°
2026-05-05 16:43 49.52711 10.79255 32833 ft 354 kts 321°
2026-05-05 16:43 49.54741 10.77089 33066 ft 356 kts 321°
2026-05-05 16:43 49.56780 10.74913 33275 ft 358 kts 321°
2026-05-05 16:43 49.58836 10.72716 33488 ft 359 kts 321°
2026-05-05 16:44 49.60864 10.70545 33686 ft 361 kts 321°
2026-05-05 16:44 49.62941 10.68318 33831 ft 366 kts 321°
2026-05-05 16:44 49.67176 10.63770 33833 ft 371 kts 321°
2026-05-05 16:45 49.71388 10.59244 33837 ft 368 kts 321°
2026-05-05 16:45 49.75645 10.54791 33821 ft 370 kts 324°
2026-05-05 16:46 49.80023 10.50619 33812 ft 369 kts 324°
2026-05-05 16:46 49.84388 10.46435 33818 ft 369 kts 323°
2026-05-05 16:47 49.88811 10.42179 33831 ft 382 kts 324°
2026-05-05 16:47 49.93428 10.37727 33818 ft 399 kts 324°
2026-05-05 16:48 49.98247 10.33075 33821 ft 416 kts 324°
2026-05-05 16:48 50.03262 10.28230 33815 ft 433 kts 325°
2026-05-05 16:49 50.05964 10.26021 33820 ft 445 kts 332°
2026-05-05 16:49 50.08852 10.24260 33818 ft 456 kts 338°
2026-05-05 16:49 50.15168 10.22021 33817 ft 474 kts 346°
2026-05-05 16:50 50.21726 10.20089 33813 ft 484 kts 346°
2026-05-05 16:50 50.28338 10.18137 33813 ft 483 kts 346°
2026-05-05 16:51 50.34947 10.16192 33814 ft 483 kts 346°
2026-05-05 16:51 50.41439 10.13863 33814 ft 468 kts 334°
2026-05-05 16:52 50.44316 10.11584 33811 ft 460 kts 322°
2026-05-05 16:52 50.46791 10.08458 33811 ft 454 kts 310°
2026-05-05 16:52 50.50985 10.01181 33809 ft 452 kts 307°
2026-05-05 16:53 50.55164 9.93816 33812 ft 450 kts 307°
2026-05-05 16:53 50.59155 9.86223 33812 ft 449 kts 305°
2026-05-05 16:54 50.63091 9.78661 33399 ft 445 kts 308°
2026-05-05 16:54 50.65382 9.75319 32735 ft 451 kts 319°
2026-05-05 16:54 50.68079 9.72777 31826 ft 455 kts 331°
2026-05-05 16:55 50.71088 9.71152 30808 ft 460 kts 343°
2026-05-05 16:55 50.74273 9.70529 29827 ft 464 kts 354°
2026-05-05 16:55 50.77462 9.70082 28704 ft 455 kts 344°
2026-05-05 16:55 50.80456 9.68655 27626 ft 444 kts 332°
2026-05-05 16:56 50.83107 9.66283 26583 ft 433 kts 319°
2026-05-05 16:56 50.85318 9.63126 25586 ft 424 kts 307°
2026-05-05 16:56 50.87063 9.59429 24620 ft 415 kts 297°
2026-05-05 16:56 50.88409 9.55480 23697 ft 411 kts 294°
2026-05-05 16:57 50.89749 9.51501 22674 ft 409 kts 295°
2026-05-05 16:57 50.91095 9.47547 21611 ft 406 kts 295°
2026-05-05 16:57 50.92433 9.43626 20591 ft 403 kts 295°
2026-05-05 16:57 50.93761 9.39729 19636 ft 400 kts 295°
2026-05-05 16:58 50.95057 9.35923 19246 ft 382 kts 295°
2026-05-05 16:58 50.96293 9.32292 18854 ft 367 kts 295°
2026-05-05 16:58 50.97489 9.28762 18179 ft 361 kts 295°
2026-05-05 16:58 50.98674 9.25250 17239 ft 361 kts 295°
2026-05-05 16:59 50.99863 9.21717 16133 ft 365 kts 295°
2026-05-05 16:59 51.01074 9.18113 14770 ft 375 kts 296°
2026-05-05 16:59 51.02322 9.14394 13305 ft 387 kts 296°
2026-05-05 16:59 51.03601 9.10587 11747 ft 395 kts 296°
2026-05-05 17:00 51.04907 9.06698 10255 ft 400 kts 296°
2026-05-05 17:00 51.06217 9.02792 8996 ft 399 kts 296°
2026-05-05 17:00 51.07504 8.98950 7924 ft 390 kts 296°
2026-05-05 17:00 51.08765 8.95180 6876 ft 383 kts 296°
2026-05-05 17:01 51.09999 8.91483 5822 ft 376 kts 296°
2026-05-05 17:01 51.11216 8.87830 4795 ft 368 kts 296°
2026-05-05 17:01 51.12661 8.84595 4231 ft 352 kts 315°
2026-05-05 17:01 51.14599 8.82539 3966 ft 330 kts 337°
2026-05-05 17:02 51.16787 8.81876 3827 ft 307 kts
2026-05-05 17:02 51.18810 8.82326 3812 ft 280 kts
2026-05-05 17:02 51.20644 8.82798 3815 ft 255 kts
2026-05-05 17:02 51.22297 8.83194 3817 ft 236 kts
2026-05-05 17:03 51.23971 8.83563 3822 ft 240 kts
2026-05-05 17:03 51.25590 8.83902 3847 ft 239 kts
2026-05-05 17:03 51.27256 8.84244 3828 ft 246 kts
2026-05-05 17:03 51.28960 8.84590 3829 ft 247 kts
2026-05-05 17:04 51.30693 8.84948 3770 ft 247 kts
2026-05-05 17:04 51.32358 8.85295 3739 ft 242 kts
2026-05-05 17:04 51.34031 8.85638 3693 ft 242 kts
2026-05-05 17:04 51.35717 8.85988 3479 ft 241 kts
2026-05-05 17:05 51.37303 8.86499 3338 ft 230 kts 22°
2026-05-05 17:05 51.38579 8.87923 3336 ft 223 kts 48°
2026-05-05 17:05 51.39546 8.89939 3322 ft 230 kts 64°
2026-05-05 17:05 51.40102 8.92235 3324 ft 217 kts 72°
2026-05-05 17:06 51.40535 8.94451 3317 ft 200 kts 73°
2026-05-05 17:06 51.40916 8.96507 3296 ft 187 kts 74°
2026-05-05 17:06 51.41259 8.98496 3155 ft 183 kts 76°
2026-05-05 17:06 51.41562 9.00435 2921 ft 178 kts 77°
2026-05-05 17:07 51.41829 9.02357 2822 ft 180 kts 78°
2026-05-05 17:07 51.42063 9.04338 2820 ft 181 kts 80°
2026-05-05 17:07 51.42197 9.05657 2818 ft 170 kts 81°
2026-05-05 17:07 51.42358 9.07376 2806 ft 146 kts 82°
2026-05-05 17:08 51.42502 9.08988 2829 ft 155 kts 82°
2026-05-05 17:08 51.42623 9.10668 2748 ft 148 kts 84°
2026-05-05 17:08 51.42714 9.12301 2473 ft 147 kts 85°
2026-05-05 17:08 51.42781 9.13911 2325 ft 145 kts 86°
2026-05-05 17:09 51.42828 9.15520 2304 ft 140 kts 87°
2026-05-05 17:09 51.42855 9.17025 2308 ft 134 kts 88°
2026-05-05 17:09 51.42868 9.18533 2306 ft 135 kts 89°
2026-05-05 17:09 51.42865 9.20032 2309 ft 135 kts 90°
2026-05-05 17:10 51.42847 9.21536 2311 ft 135 kts 91°
2026-05-05 17:10 51.42817 9.23030 2311 ft 134 kts 91°
2026-05-05 17:10 51.42776 9.24527 2308 ft 135 kts 92°
2026-05-05 17:10 51.42725 9.26043 2172 ft 136 kts 92°
2026-05-05 17:11 51.42666 9.27546 1999 ft 135 kts 93°
2026-05-05 17:11 51.42601 9.29042 1822 ft 134 kts 93°
2026-05-05 17:11 51.42531 9.30527 1662 ft 132 kts 93°
2026-05-05 17:11 51.42466 9.31970 1524 ft 128 kts 92°
2026-05-05 17:12 51.42392 9.33379 1382 ft 126 kts 92°
2026-05-05 17:12 51.42318 9.34775 1230 ft 124 kts 92°
2026-05-05 17:12 51.42244 9.36168 1076 ft 126 kts 92°
2026-05-05 17:12 51.42169 9.37549 909 ft 125 kts 91°
2026-05-05 17:13 51.42106 9.38715 852 ft 52 kts 96°
2026-05-05 17:13 51.42091 9.38969 850 ft 21 kts 94°
2026-05-05 17:13 51.42077 9.39214 851 ft 22 kts 95°
2026-05-05 17:13 51.42067 9.39424 839 ft 18 kts 94°
2026-05-05 17:14 51.42057 9.39643 846 ft 21 kts 94°
2026-05-05 17:14 51.42037 9.39887 832 ft 23 kts 104°
2026-05-05 17:14 51.41976 9.40129 833 ft 23 kts 120°
2026-05-05 17:14 51.41886 9.40262 840 ft 10 kts 186°
2026-05-05 17:15 51.41871 9.40233 834 ft 3 kts 259°
2026-05-05 17:15 51.41868 9.40190 839 ft 5 kts 266°
2026-05-05 17:15 51.41868 9.40123 835 ft 7 kts 271°
2026-05-05 17:15 51.41875 9.40027 843 ft 12 kts 276°
2026-05-05 17:16 51.41884 9.39840 844 ft 22 kts 274°
2026-05-05 17:16 51.41902 9.39541 844 ft 31 kts 276°
2026-05-05 17:16 51.41925 9.39155 840 ft 38 kts 275°
2026-05-05 17:16 51.41907 9.38838 855 ft 19 kts 217°
2026-05-05 17:17 51.41818 9.38845 858 ft 13 kts 152°
2026-05-05 17:17 51.41759 9.38830 852 ft 1 kts 231°
2026-05-05 17:17 51.41757 9.38778 863 ft 5 kts 275°
2026-05-05 17:17 51.41758 9.38757 858 ft 2 kts 275°
2026-05-05 17:18 51.41758 9.38751 860 ft 0 kts 275°
2026-05-05 17:18 51.41758 9.38750 860 ft 0 kts 275°